period_start,C,m1,H,J0,J1,J2,J3,J4,J5,JA,JB,JC,JD,JJ,JK,JN,#
2017-03-14 00:00:11,0.14,2.73,0.00,24.16,26.72,30.07,14.36,49.36,1015.92,2030.03,2573.38,2402.08,2741.32,599.73,593.06,22.77,0000 0000 0000 0000 000000
2017-03-14 00:05:12,0.16,2.73,0.00,24.16,26.72,30.06,14.48,49.51,1015.78,2030.00,2570.98,2400.52,2739.53,600.11,593.30,22.82,0000 0000 0000 0000 000000
2017-03-14 00:10:13,0.16,2.74,0.00,24.17,26.72,30.05,14.45,49.42,1015.83,2030.02,2568.71,2398.87,2737.69,600.00,593.27,22.87,0000 0000 0000 0000 000000
2017-03-14 00:15:15,0.13,2.75,0.00,24.17,26.72,30.04,14.44,49.36,1015.73,2030.02,2566.47,2397.38,2735.95,600.02,593.22,22.92,0000 0000 0000 0000 000000
2017-03-14 00:20:16,0.16,2.76,0.00,24.17,26.72,30.03,14.46,49.27,1015.84,2030.01,2564.20,2395.80,2734.17,599.78,593.01,22.97,0000 0000 0000 0000 000000
2017-03-14 00:25:17,0.14,2.76,0.00,24.19,26.72,30.03,14.33,49.14,1015.69,2030.01,2561.88,2394.25,2732.45,599.75,592.93,23.02,0000 0000 0000 0000 000000
2017-03-14 00:30:18,0.15,2.77,0.00,24.18,26.72,30.02,14.44,49.14,1015.66,2030.01,2559.70,2392.69,2730.67,599.99,593.09,23.07,0000 0000 0000 0000 000000
2017-03-14 00:35:19,0.13,2.78,0.00,24.22,26.72,30.01,14.37,49.10,1015.65,2030.01,2557.62,2391.19,2728.87,599.96,592.98,23.12,0000 0000 0000 0000 000000
2017-03-14 00:40:21,0.16,2.79,0.00,24.22,26.72,30.00,14.39,49.13,1015.64,2030.02,2555.30,2389.60,2727.08,599.96,592.97,23.17,0000 0000 0000 0000 000000
2017-03-14 00:45:22,0.15,2.79,0.00,24.24,26.72,29.99,14.43,49.22,1015.64,2030.03,2553.07,2387.99,2725.30,600.16,593.13,23.22,0000 0000 0000 0000 000000
2017-03-14 00:50:23,0.15,2.80,0.00,24.25,26.72,29.99,14.48,49.22,1015.64,2030.03,2550.82,2386.52,2723.57,600.42,593.19,23.27,0000 0000 0000 0000 000000
2017-03-14 00:55:23,0.15,2.81,0.00,24.25,26.72,30.00,14.42,49.30,1015.65,2030.02,2548.54,2384.90,2721.77,600.24,593.15,23.32,0000 0000 0000 0000 000000
2017-03-14 01:00:25,0.13,2.82,0.00,24.25,26.71,29.99,14.27,49.35,1015.68,2030.01,2546.37,2383.41,2719.98,599.72,592.67,23.37,0000 0000 0000 0000 000000
2017-03-14 01:05:26,0.13,2.82,0.00,24.24,26.71,29.98,14.35,49.37,1015.71,2030.02,2544.43,2381.94,2718.31,599.81,592.83,23.42,0000 0000 0000 0000 000000
2017-03-14 01:10:27,0.14,2.83,0.00,24.22,26.71,29.96,14.31,49.45,1015.67,2030.01,2542.39,2380.56,2716.65,599.54,592.50,23.47,0000 0000 0000 0000 000000
2017-03-14 01:15:29,0.14,2.84,0.00,24.22,26.72,29.97,14.37,49.42,1015.74,2030.01,2540.26,2379.03,2714.92,600.06,593.16,23.52,0000 0000 0000 0000 000000
2017-03-14 01:20:30,0.14,2.85,0.00,24.23,26.72,29.97,14.41,49.54,1015.71,2030.01,2538.17,2377.57,2713.31,599.94,592.99,23.57,0000 0000 0000 0000 000000
2017-03-14 01:25:31,0.13,2.85,0.00,24.23,26.72,29.96,14.43,49.52,1015.74,2030.02,2536.20,2376.26,2711.75,600.35,593.40,23.62,0000 0000 0000 0000 000000
2017-03-14 01:30:33,0.15,2.86,0.00,24.29,26.72,29.95,14.32,49.25,1015.86,2030.01,2534.06,2374.75,2710.06,599.94,593.09,23.67,0000 0000 0000 0000 000000
2017-03-14 01:35:34,0.13,2.87,0.00,24.27,26.72,29.95,14.47,49.21,1016.01,2030.00,2532.01,2373.42,2708.52,600.29,593.39,23.72,0000 0000 0000 0000 000000
2017-03-14 01:40:35,0.14,2.87,0.00,24.27,26.72,29.96,14.38,49.43,1016.06,2030.01,2529.95,2371.89,2706.82,600.05,593.22,23.77,0000 0000 0000 0000 000000
2017-03-14 01:45:36,0.13,2.88,0.00,24.27,26.72,29.95,14.43,49.20,1015.94,2030.01,2527.95,2370.50,2705.22,600.22,593.32,23.82,0000 0000 0000 0000 000000
2017-03-14 01:50:38,0.13,2.89,0.00,24.28,26.72,29.96,14.44,49.33,1015.74,2030.02,2525.93,2369.20,2703.68,600.13,593.13,23.87,0000 0000 0000 0000 000000
2017-03-14 01:55:39,0.14,2.90,0.00,24.27,26.72,29.97,14.37,49.14,1015.72,2030.01,2523.97,2367.78,2702.10,599.77,592.74,23.92,0000 0000 0000 0000 000000
2017-03-14 02:00:40,0.13,2.90,0.00,24.27,26.72,29.95,14.43,49.19,1015.80,2030.00,2521.96,2366.59,2700.56,600.11,593.13,23.97,0000 0000 0000 0000 000000
2017-03-14 02:05:41,0.13,2.91,0.00,24.31,26.72,29.94,14.37,49.02,1015.75,2030.00,2519.95,2365.18,2698.91,600.02,592.90,24.02,0000 0000 0000 0000 000000
2017-03-14 02:10:43,0.14,2.92,0.00,24.30,26.72,29.94,14.32,49.17,1015.67,2030.00,2517.93,2363.78,2697.37,599.59,592.47,24.07,0000 0000 0000 0000 000000
2017-03-14 02:15:44,0.14,2.92,0.00,24.29,26.72,29.95,14.31,49.27,1015.65,2030.00,2515.90,2362.46,2695.78,599.75,592.78,24.12,0000 0000 0000 0000 000000
2017-03-14 02:20:45,0.14,2.93,0.00,24.30,26.72,29.93,14.44,49.27,1015.64,2030.00,2513.81,2360.97,2694.11,600.15,592.88,24.17,0000 0000 0000 0000 000000
2017-03-14 02:25:46,0.15,2.94,0.00,24.32,26.72,29.94,14.40,49.17,1015.65,2030.00,2511.72,2359.52,2692.53,600.15,592.97,24.22,0000 0000 0000 0000 000000
2017-03-14 02:30:47,0.16,2.95,0.00,24.31,26.73,29.96,14.46,49.14,1015.65,2030.00,2509.45,2357.95,2690.74,600.23,593.07,24.27,0000 0000 0000 0000 000000
2017-03-14 02:35:48,0.14,2.95,0.00,24.31,26.73,29.95,14.45,49.12,1015.66,2029.99,2507.33,2356.51,2688.99,600.02,592.90,24.32,0000 0000 0000 0000 000000
2017-03-14 02:40:49,0.14,2.96,0.00,24.32,26.73,29.94,14.36,49.02,1015.66,2029.99,2505.24,2355.03,2687.49,599.92,592.73,24.37,0000 0000 0000 0000 000000
2017-03-14 02:45:51,0.14,2.97,0.00,24.32,26.74,29.94,14.32,49.07,1015.66,2029.99,2503.26,2353.67,2685.97,599.99,592.82,24.42,0000 0000 0000 0000 000000
2017-03-14 02:50:52,0.13,2.97,0.00,24.31,26.74,29.95,14.45,49.21,1015.69,2029.99,2501.27,2352.37,2684.48,600.21,593.07,24.47,0000 0000 0000 0000 000000
2017-03-14 02:55:53,0.14,2.98,0.00,24.29,26.75,29.94,14.48,49.12,1015.66,2029.99,2499.20,2350.90,2682.85,600.26,593.24,24.52,0000 0000 0000 0000 000000
2017-03-14 03:00:54,0.14,2.99,0.00,24.31,26.75,29.95,14.38,49.13,1015.68,2029.99,2497.14,2349.54,2681.24,600.18,592.84,24.57,0000 0000 0000 0000 000000
2017-03-14 03:05:55,0.13,3.00,0.00,24.32,26.75,29.94,14.32,49.15,1015.64,2029.99,2495.14,2348.07,2679.59,599.91,592.73,24.62,0000 0000 0000 0000 000000
2017-03-14 03:10:57,0.14,3.00,0.00,24.34,26.75,29.94,14.30,49.13,1015.64,2029.99,2493.15,2346.66,2678.00,599.81,592.57,24.67,0000 0000 0000 0000 000000
2017-03-14 03:15:58,0.16,3.01,0.00,24.32,26.75,29.95,14.33,49.15,1015.64,2029.98,2490.99,2345.09,2676.20,600.04,592.92,24.72,0000 0000 0000 0000 000000
2017-03-14 03:21:00,0.15,3.02,0.00,24.32,26.75,29.95,14.32,49.26,1015.64,2029.99,2488.67,2343.48,2674.42,599.89,592.69,24.77,0000 0000 0000 0000 000000
2017-03-14 03:26:01,0.14,3.03,0.00,24.35,26.75,29.95,14.34,49.22,1015.63,2029.99,2486.59,2341.99,2672.77,600.00,592.76,24.82,0000 0000 0000 0000 000000
2017-03-14 03:31:02,0.15,3.03,0.00,24.35,26.75,29.94,14.42,49.33,1015.61,2029.99,2484.47,2340.53,2671.09,599.98,592.72,24.87,0000 0000 0000 0000 000000
2017-03-14 03:36:03,0.14,3.04,0.00,24.34,26.76,29.95,14.28,49.25,1015.44,2029.99,2482.37,2339.08,2669.46,599.94,592.63,24.92,0000 0000 0000 0000 000000
2017-03-14 03:41:05,0.16,3.05,0.00,24.36,26.77,29.94,14.37,49.42,1015.35,2029.99,2480.23,2337.59,2667.74,600.09,592.65,24.97,0000 0000 0000 0000 000000
2017-03-14 03:46:06,0.14,3.06,0.00,24.38,26.77,29.94,14.38,49.45,1015.35,2029.99,2478.13,2336.16,2666.08,599.94,592.48,25.02,0000 0000 0000 0000 000000
2017-03-14 03:51:07,0.15,3.06,0.00,24.37,26.77,29.94,14.46,49.54,1015.30,2029.99,2476.00,2334.62,2664.41,600.17,592.68,25.07,0000 0000 0000 0000 000000
2017-03-14 03:56:08,0.14,3.07,0.00,24.36,26.77,29.95,14.48,49.52,1015.28,2029.98,2473.81,2333.11,2662.70,600.14,592.70,25.12,0000 0000 0000 0000 000000
2017-03-14 04:01:10,0.16,3.08,0.00,24.34,26.77,29.95,14.39,49.32,1015.19,2029.97,2471.58,2331.58,2660.92,600.09,592.60,25.17,0000 0000 0000 0000 000000
2017-03-14 04:06:11,0.16,3.09,0.00,24.38,26.78,29.95,14.38,49.33,1015.18,2029.96,2469.25,2329.98,2659.09,600.10,592.52,25.22,0000 0000 0000 0000 000000
2017-03-14 04:11:12,0.15,3.10,0.00,24.37,26.79,29.95,14.36,49.37,1015.17,2029.98,2467.10,2328.45,2657.34,599.86,592.26,25.27,0000 0000 0000 0000 000000
2017-03-14 04:16:13,0.17,3.10,0.00,24.39,26.80,29.96,14.40,49.28,1015.17,2029.94,2464.84,2326.75,2655.48,600.01,592.51,25.32,0000 0000 0000 0000 000000
2017-03-14 04:21:14,0.16,3.11,0.00,24.36,26.80,29.97,14.42,49.25,1015.17,2029.90,2462.46,2325.06,2653.48,600.16,592.66,25.37,0000 0000 0000 0000 000000
2017-03-14 04:26:16,0.17,3.12,0.00,24.34,26.80,29.98,14.42,49.82,1015.17,2029.86,2460.08,2323.46,2651.64,600.04,592.55,25.42,0000 0000 0000 0000 000000
2017-03-14 04:31:17,0.16,3.13,0.00,24.36,26.80,29.97,14.43,49.68,1015.16,2029.87,2457.81,2321.85,2649.86,600.15,592.61,25.47,0000 0000 0000 0000 000000
2017-03-14 04:36:18,0.12,3.14,0.00,24.37,26.80,29.99,14.43,49.63,1015.17,2029.71,2455.54,2320.32,2648.12,600.20,592.64,25.52,0000 0000 0000 0000 000000
2017-03-14 04:41:19,0.17,3.14,0.00,24.36,26.80,29.98,14.41,49.48,1015.15,2029.59,2453.18,2318.70,2646.22,600.17,592.55,25.57,0000 0000 0000 0000 000000
2017-03-14 04:46:21,0.15,3.15,0.00,24.34,26.80,29.99,14.37,49.37,1015.15,2029.55,2450.94,2317.05,2644.39,599.94,592.36,25.62,0000 0000 0000 0000 000000
2017-03-14 04:51:22,0.15,3.16,0.00,24.30,26.80,30.01,14.30,49.37,1015.15,2029.37,2448.44,2315.31,2642.39,599.64,592.12,25.67,0000 0000 0000 0000 000000
2017-03-14 04:56:24,0.18,3.17,0.00,24.27,26.80,30.02,14.40,49.42,1015.15,2029.20,2445.99,2313.61,2640.45,599.97,592.59,25.72,0000 0000 0000 0000 000000
2017-03-14 05:01:25,0.17,3.18,0.00,24.36,26.80,30.02,14.38,49.25,1015.15,2029.24,2443.50,2311.88,2638.52,600.00,592.47,25.77,0000 0000 0000 0000 000000
2017-03-14 05:06:26,0.20,3.19,0.00,24.34,26.81,30.02,14.41,49.46,1015.15,2029.13,2440.80,2309.92,2636.29,599.91,592.37,25.82,0000 0000 0000 0000 000000
2017-03-14 05:11:28,0.21,3.20,0.00,24.30,26.82,30.03,14.44,49.42,1015.15,2029.13,2437.91,2307.86,2633.94,599.99,592.55,25.87,0000 0000 0000 0000 000000
2017-03-14 05:16:29,0.19,3.21,0.00,24.31,26.82,30.03,14.36,49.33,1015.15,2029.10,2435.21,2305.97,2631.79,600.17,592.78,25.93,0000 0000 0000 0000 000000
2017-03-14 05:21:30,0.18,3.22,0.00,24.30,26.82,30.03,14.31,49.23,1015.15,2029.07,2432.49,2304.10,2629.67,600.28,592.81,25.98,0000 0000 0000 0000 000000
2017-03-14 05:26:31,0.18,3.23,0.00,24.29,26.82,30.05,14.37,49.37,1015.11,2029.04,2429.89,2302.38,2627.59,599.91,592.54,26.03,0000 0000 0000 0000 000000
2017-03-14 05:31:32,0.20,3.24,0.00,24.22,26.82,30.06,14.40,49.32,1014.83,2029.05,2427.16,2300.53,2625.45,600.15,592.67,26.08,0000 0000 0000 0000 000000
2017-03-14 05:36:34,0.19,3.25,0.00,24.20,26.82,30.06,14.38,49.54,1014.68,2029.06,2424.52,2298.65,2623.40,599.81,592.66,26.13,0000 0000 0000 0000 000000
2017-03-14 05:41:35,0.19,3.26,0.00,24.27,26.82,30.05,14.40,49.40,1014.67,2029.05,2421.78,2296.77,2621.39,600.17,592.52,26.18,0000 0000 0000 0000 000000
2017-03-14 05:46:37,0.20,3.27,0.00,24.22,26.82,30.06,14.35,49.43,1014.66,2029.04,2419.00,2294.85,2619.25,600.05,592.49,26.23,0000 0000 0000 0000 000000
2017-03-14 05:51:38,0.20,3.28,0.00,24.19,26.82,30.06,14.41,49.38,1014.66,2029.03,2416.24,2292.87,2617.03,600.15,592.66,26.28,0000 0000 0000 0000 000000
2017-03-14 05:56:39,0.19,3.29,0.00,24.25,26.82,30.06,14.46,49.27,1014.68,2029.02,2413.53,2291.02,2614.92,600.14,592.58,26.33,0000 0000 0000 0000 000000
2017-03-14 06:01:41,0.20,3.30,0.00,24.22,26.82,30.07,14.36,49.17,1014.66,2029.05,2410.74,2289.09,2612.71,599.74,592.19,26.38,0000 0000 0000 0000 000000
2017-03-14 06:06:42,0.19,3.31,0.00,24.14,26.82,30.07,14.40,49.26,1014.66,2029.03,2408.03,2287.22,2610.53,599.96,592.57,26.43,0000 0000 0000 0000 000000
2017-03-14 06:11:43,0.25,3.32,0.00,24.10,26.82,30.07,14.40,49.32,1014.65,2029.01,2404.86,2284.90,2608.01,600.05,592.69,26.48,0000 0000 0000 0000 000000
2017-03-14 06:16:45,0.20,3.33,0.00,24.26,26.82,30.05,14.41,49.22,1014.63,2029.02,2401.98,2282.78,2605.62,599.99,592.38,26.53,0000 0000 0000 0000 000000
2017-03-14 06:21:46,0.20,3.34,0.00,24.12,26.82,30.06,14.36,49.13,1014.60,2029.01,2399.15,2280.87,2603.42,599.78,592.39,26.58,0000 0000 0000 0000 000000
2017-03-14 06:26:47,0.20,3.35,0.00,24.14,26.82,30.06,14.50,49.27,1014.57,2029.00,2396.35,2278.95,2601.30,600.26,592.81,26.63,0000 0000 0000 0000 000000
2017-03-14 06:31:48,0.20,3.36,0.00,24.23,26.82,30.05,14.40,49.07,1014.36,2029.00,2393.58,2277.02,2599.12,599.74,592.00,26.68,0000 0000 0000 0000 000000
2017-03-14 06:36:50,0.20,3.37,0.00,24.13,26.82,30.05,14.42,49.13,1014.21,2029.01,2390.89,2275.14,2597.01,600.10,592.43,26.73,0000 0000 0000 0000 000000
2017-03-14 06:41:51,0.20,3.38,0.00,24.16,26.81,30.06,14.30,49.08,1014.18,2029.00,2388.17,2273.23,2594.89,599.89,592.18,26.78,0000 0000 0000 0000 000000
2017-03-14 06:46:52,0.20,3.39,0.00,24.18,26.80,30.05,14.39,49.12,1014.18,2029.01,2385.37,2271.36,2592.70,600.01,592.25,26.83,0000 0000 0000 0000 000000
2017-03-14 06:51:53,0.20,3.40,0.00,24.20,26.80,30.05,14.50,49.30,1014.18,2029.01,2382.61,2269.40,2590.48,600.14,592.33,26.88,0000 0000 0000 0000 000000
2017-03-14 06:56:55,0.20,3.41,0.00,24.15,26.80,30.05,14.27,49.13,1014.18,2029.00,2379.87,2267.49,2588.32,599.74,592.01,26.93,0000 0000 0000 0000 000000
2017-03-14 07:01:56,0.21,3.42,0.00,24.19,26.80,30.05,14.41,49.12,1014.18,2029.00,2377.17,2265.55,2586.15,600.05,592.27,26.98,0000 0000 0000 0000 000000
2017-03-14 07:06:57,0.20,3.43,0.00,24.30,26.80,30.05,14.26,49.05,1014.18,2029.00,2374.39,2263.65,2583.94,599.52,591.56,27.03,0000 0000 0000 0000 000000
2017-03-14 07:11:59,0.20,3.44,0.00,24.15,26.80,30.05,14.35,48.99,1014.18,2029.01,2371.73,2261.78,2581.86,599.77,592.02,27.08,0000 0000 0000 0000 000000
2017-03-14 07:17:00,0.20,3.45,0.00,24.12,26.80,30.05,14.39,49.08,1014.17,2029.00,2369.01,2259.88,2579.71,600.21,592.58,27.13,0000 0000 0000 0000 000000
2017-03-14 07:22:01,0.20,3.47,0.00,24.23,26.80,30.04,14.41,49.01,1014.17,2029.01,2366.45,2258.02,2577.55,600.08,592.22,27.18,0000 0000 0000 0000 000000
2017-03-14 07:27:02,0.19,3.48,0.00,24.12,26.80,30.06,14.39,48.94,1014.17,2029.01,2363.83,2256.19,2575.47,599.99,592.17,27.23,0000 0000 0000 0000 000000
2017-03-14 07:32:03,0.19,3.48,0.00,24.11,26.80,30.06,14.38,49.14,1014.17,2029.01,2361.27,2254.41,2573.46,599.86,592.10,27.28,0000 0000 0000 0000 000000
2017-03-14 07:37:05,0.20,3.49,0.00,24.01,26.79,30.05,14.40,49.06,1014.17,2029.00,2358.67,2252.59,2571.42,599.68,592.30,27.33,0000 0000 0000 0000 000000
2017-03-14 07:42:06,0.19,3.50,0.00,24.16,26.78,30.05,14.37,49.01,1014.16,2029.00,2356.06,2250.78,2569.42,599.85,592.13,27.38,0000 0000 0000 0000 000000
2017-03-14 07:47:07,0.20,3.51,0.00,24.04,26.77,30.04,14.48,49.13,1014.17,2029.01,2353.44,2248.99,2567.32,600.18,592.67,27.43,0000 0000 0000 0000 000000
2017-03-14 07:52:09,0.19,3.52,0.00,24.00,26.77,30.04,14.35,49.02,1014.16,2029.01,2350.83,2247.20,2565.28,599.63,592.16,27.48,0000 0000 0000 0000 000000
2017-03-14 07:57:10,0.20,3.53,0.00,24.22,26.77,30.03,14.43,48.97,1014.17,2029.02,2348.23,2245.39,2563.23,599.93,592.17,27.53,0000 0000 0000 0000 000000
2017-03-14 08:02:11,0.19,3.54,0.00,24.12,26.77,30.04,14.33,48.95,1014.17,2029.01,2345.67,2243.62,2561.21,599.87,592.22,27.58,0000 0000 0000 0000 000000
2017-03-14 08:07:12,0.20,3.55,0.00,23.97,26.77,30.03,14.40,49.04,1014.17,2029.01,2343.09,2241.78,2559.21,600.01,592.67,27.63,0000 0000 0000 0000 000000
2017-03-14 08:12:13,0.18,3.56,0.00,24.16,26.77,30.03,14.48,49.02,1014.17,2029.03,2340.51,2240.01,2557.36,600.19,592.41,27.68,0000 0000 0000 0000 000000
2017-03-14 08:17:14,0.18,3.57,0.00,24.07,26.77,30.04,14.36,49.04,1014.17,2029.02,2337.98,2238.42,2555.33,600.19,592.58,27.73,0000 0000 0000 0000 000000
2017-03-14 08:22:16,0.22,3.58,0.00,23.95,26.75,30.03,14.40,49.19,1014.17,2029.01,2335.18,2236.50,2553.15,600.09,592.78,27.78,0000 0000 0000 0000 000000
2017-03-14 08:27:17,0.19,3.59,0.00,24.14,26.75,30.03,14.43,49.10,1014.14,2029.05,2332.58,2234.74,2551.16,600.24,592.53,27.83,0000 0000 0000 0000 000000
2017-03-14 08:32:18,0.21,3.60,0.00,24.18,26.75,30.03,14.40,49.14,1014.11,2029.05,2330.02,2232.81,2549.01,600.49,592.76,27.88,0000 0000 0000 0000 000000
2017-03-14 08:37:20,0.19,3.61,0.00,23.96,26.75,30.04,14.46,49.24,1014.08,2029.05,2327.39,2231.05,2546.99,600.18,592.83,27.93,0000 0000 0000 0000 000000
2017-03-14 08:42:21,0.19,3.62,0.00,23.97,26.75,30.03,14.36,49.18,1014.04,2029.04,2324.76,2229.27,2544.97,599.99,592.58,27.98,0000 0000 0000 0000 000000
2017-03-14 08:47:22,0.19,3.63,0.00,24.16,26.75,30.03,14.33,49.23,1013.95,2029.07,2322.25,2227.59,2543.09,599.85,592.01,28.03,0000 0000 0000 0000 000000
2017-03-14 08:52:23,0.20,3.64,0.00,24.04,26.75,30.03,14.53,49.36,1013.95,2029.05,2319.69,2225.79,2541.04,600.72,593.08,28.08,0000 0000 0000 0000 000000
2017-03-14 08:57:25,0.21,3.65,0.00,24.12,26.75,30.04,14.32,49.22,1014.00,2029.06,2317.05,2223.90,2538.93,599.78,592.05,28.13,0000 0000 0000 0000 000000
2017-03-14 09:02:26,0.18,3.66,0.00,24.01,26.75,30.03,14.31,49.06,1013.91,2029.10,2314.49,2222.16,2536.90,599.93,592.37,28.18,0000 0000 0000 0000 000000
2017-03-14 09:07:27,0.19,3.67,0.00,23.97,26.75,30.04,14.39,49.13,1013.85,2029.08,2312.00,2220.45,2534.90,600.08,592.57,28.23,0000 0000 0000 0000 000000
2017-03-14 09:12:29,0.20,3.68,0.00,24.15,26.75,30.03,14.31,49.12,1013.76,2029.09,2309.44,2218.65,2532.87,599.82,591.94,28.28,0000 0000 0000 0000 000000
2017-03-14 09:17:31,0.20,3.69,0.00,24.10,26.75,30.03,14.37,49.24,1013.75,2029.06,2306.89,2216.84,2530.89,599.84,591.95,28.33,0000 0000 0000 0000 000000
2017-03-14 09:22:32,0.19,3.70,0.00,23.96,26.74,30.03,14.46,49.33,1013.71,2029.08,2304.37,2215.12,2528.91,600.00,592.42,28.38,0000 0000 0000 0000 000000
2017-03-14 09:27:33,0.20,3.71,0.00,24.06,26.73,30.03,14.38,49.28,1013.75,2029.10,2301.85,2213.38,2526.90,599.88,592.03,28.43,0000 0000 0000 0000 000000
2017-03-14 09:32:34,0.20,3.72,0.00,24.11,26.74,30.04,14.38,49.04,1013.80,2029.09,2299.35,2211.64,2524.83,599.91,592.01,28.48,0000 0000 0000 0000 000000
2017-03-14 09:37:35,0.20,3.73,0.00,23.94,26.73,30.03,14.39,49.16,1013.87,2029.20,2296.80,2209.94,2523.00,599.97,592.42,28.53,0000 0000 0000 0000 000000
2017-03-14 09:42:37,0.20,3.75,0.00,24.15,26.72,30.02,14.43,49.13,1013.77,2029.16,2294.20,2208.08,2520.89,600.05,592.12,28.58,0000 0000 0000 0000 000000
2017-03-14 09:47:38,0.19,3.75,0.00,24.12,26.73,30.03,14.47,49.12,1013.76,2029.12,2291.72,2206.35,2518.94,600.18,592.19,28.63,0000 0000 0000 0000 000000
2017-03-14 09:52:39,0.19,3.76,0.00,23.94,26.72,30.02,14.33,49.09,1013.77,2029.12,2289.24,2204.62,2516.99,599.86,592.26,28.68,0000 0000 0000 0000 000000
2017-03-14 09:57:40,0.19,3.78,0.00,24.10,26.72,30.02,14.44,49.13,1013.76,2029.13,2286.78,2202.91,2515.04,599.96,592.13,28.73,0000 0000 0000 0000 000000
2017-03-14 10:02:41,0.18,3.79,0.00,24.15,26.72,30.02,14.33,49.02,1013.70,2029.09,2284.30,2201.17,2513.06,599.86,591.90,28.78,0000 0000 0000 0000 000000
2017-03-14 10:07:43,0.19,3.79,0.00,23.94,26.72,30.02,14.37,49.02,1013.70,2029.08,2281.81,2199.51,2511.21,599.91,592.30,28.83,0000 0000 0000 0000 000000
2017-03-14 10:12:44,0.20,3.81,0.00,23.98,26.72,30.02,14.44,49.06,1013.70,2029.11,2279.33,2197.79,2509.28,600.11,592.42,28.88,0000 0000 0000 0000 000000
2017-03-14 10:17:45,0.21,3.81,0.00,24.12,26.72,30.03,14.37,49.04,1013.70,2029.21,2276.92,2196.13,2507.34,599.92,592.05,28.93,0000 0000 0000 0000 000000
2017-03-14 10:22:46,0.19,3.82,0.00,23.96,26.72,30.03,14.42,49.06,1013.70,2029.22,2274.40,2194.42,2505.39,599.97,592.37,28.98,0000 0000 0000 0000 000000
2017-03-14 10:27:47,0.19,3.83,0.00,23.96,26.72,30.02,14.38,49.14,1013.69,2029.11,2271.83,2192.63,2503.36,599.92,592.32,29.03,0000 0000 0000 0000 000000
2017-03-14 10:32:48,0.19,3.84,0.00,24.13,26.72,30.02,14.38,49.08,1013.69,2029.16,2269.41,2190.90,2501.47,599.76,591.83,29.08,0000 0000 0000 0000 000000
2017-03-14 10:37:50,0.20,3.86,0.00,24.01,26.72,30.02,14.45,49.25,1013.69,2029.24,2267.01,2189.29,2499.59,599.91,592.16,29.13,0000 0000 0000 0000 000000
2017-03-14 10:42:51,0.18,3.86,0.00,23.95,26.72,30.03,14.36,49.09,1013.69,2029.16,2264.50,2187.60,2497.66,599.95,592.36,29.18,0000 0000 0000 0000 000000
2017-03-14 10:47:52,0.19,3.87,0.00,24.04,26.72,30.03,14.37,49.11,1013.69,2029.16,2262.13,2185.92,2495.82,599.83,592.06,29.23,0000 0000 0000 0000 000000
2017-03-14 10:52:53,0.18,3.88,0.00,23.91,26.72,30.02,14.42,49.10,1013.69,2029.11,2259.65,2184.26,2494.04,600.05,592.48,29.28,0000 0000 0000 0000 000000
2017-03-14 10:57:55,0.20,3.89,0.00,23.98,26.72,30.03,14.43,49.13,1013.68,2029.10,2257.17,2182.55,2492.09,599.84,592.23,29.33,0000 0000 0000 0000 000000
2017-03-14 11:02:56,0.20,3.90,0.00,24.14,26.72,30.02,14.41,49.00,1013.65,2029.14,2254.76,2180.82,2490.12,600.33,592.32,29.38,0000 0000 0000 0000 000000
2017-03-14 11:07:57,0.20,3.91,0.00,23.98,26.72,30.03,14.30,49.01,1013.56,2029.07,2252.23,2178.88,2488.03,599.46,591.73,29.43,0000 0000 0000 0000 000000
2017-03-14 11:12:59,0.18,3.92,0.00,23.92,26.71,30.02,14.36,49.03,1013.49,2029.08,2249.82,2177.30,2486.13,600.18,592.52,29.48,0000 0000 0000 0000 000000
2017-03-14 11:18:00,0.20,3.93,0.00,24.15,26.70,30.02,14.39,49.17,1013.38,2029.11,2247.37,2175.61,2484.26,600.29,592.04,29.53,0000 0000 0000 0000 000000
2017-03-14 11:23:01,0.19,3.94,0.00,24.07,26.71,30.02,14.32,49.02,1013.30,2029.10,2244.86,2174.01,2482.34,599.74,591.81,29.58,0000 0000 0000 0000 000000
2017-03-14 11:28:02,0.18,3.95,0.00,23.94,26.70,30.02,14.38,49.05,1013.27,2029.17,2242.47,2172.45,2480.53,599.87,592.06,29.63,0000 0000 0000 0000 000000
2017-03-14 11:33:03,0.22,3.96,0.00,23.99,26.70,30.02,14.37,49.08,1013.25,2029.28,2240.20,2170.82,2478.70,600.23,592.27,29.68,0000 0000 0000 0000 000000
2017-03-14 11:38:05,0.16,3.97,0.00,24.13,26.70,30.03,14.33,49.07,1013.22,2029.41,2238.08,2169.29,2476.92,599.78,591.56,29.73,0000 0000 0000 0000 000000
2017-03-14 11:43:06,0.19,3.98,0.00,23.95,26.70,30.01,14.32,49.07,1013.21,2029.32,2235.62,2167.62,2475.03,599.74,591.87,29.78,0000 0000 0000 0000 000000
2017-03-14 11:48:07,0.20,3.99,0.00,23.93,26.70,30.01,14.36,49.04,1013.20,2029.19,2233.16,2165.89,2473.10,599.97,592.22,29.83,0000 0000 0000 0000 000000
2017-03-14 11:53:08,0.17,4.00,0.00,24.21,26.70,30.01,14.34,49.01,1013.20,2029.10,2230.79,2164.26,2471.26,599.90,591.52,29.89,0000 0000 0000 0000 000000
2017-03-14 11:58:10,0.19,4.01,0.00,24.08,26.70,30.02,14.34,49.05,1013.20,2029.14,2228.42,2162.65,2469.41,599.75,591.57,29.94,0000 0000 0000 0000 000000
2017-03-14 12:03:11,0.19,4.02,0.00,23.93,26.70,30.01,14.42,49.08,1013.20,2029.09,2225.91,2160.97,2467.51,599.98,592.14,29.99,0000 0000 0000 0000 000000
2017-03-14 12:08:12,0.23,4.03,0.00,24.12,26.70,30.01,14.33,48.99,1013.20,2029.15,2223.35,2159.01,2465.33,599.96,591.83,30.04,0000 0000 0000 0000 000000
2017-03-14 12:13:14,0.19,4.04,0.00,24.22,26.70,30.02,14.37,49.04,1013.20,2029.15,2220.96,2157.34,2463.39,599.96,591.64,30.09,0000 0000 0000 0000 000000
2017-03-14 12:18:15,0.19,4.05,0.00,24.01,26.70,30.01,14.41,49.10,1013.20,2029.08,2218.56,2155.68,2461.50,600.14,592.19,30.14,0000 0000 0000 0000 000000
2017-03-14 12:23:16,0.19,4.06,0.00,24.07,26.70,30.02,14.34,49.12,1013.20,2029.06,2216.09,2154.00,2459.56,599.97,591.87,30.19,0000 0000 0000 0000 000000
2017-03-14 12:28:18,0.19,4.07,0.00,24.18,26.70,30.03,14.36,49.09,1013.20,2029.05,2213.65,2152.37,2457.65,599.78,591.46,30.24,0000 0000 0000 0000 000000
2017-03-14 12:33:19,0.21,4.08,0.00,23.97,26.71,30.02,14.38,49.03,1013.18,2029.04,2211.15,2150.65,2455.78,599.90,592.00,30.29,0000 0000 0000 0000 000000
2017-03-14 12:38:20,0.20,4.09,0.00,23.94,26.70,30.02,14.37,49.13,1013.13,2029.08,2208.73,2149.01,2453.86,600.31,592.28,30.34,0000 0000 0000 0000 000000
2017-03-14 12:43:21,0.18,4.10,0.00,24.13,26.71,30.03,14.35,49.11,1013.10,2029.06,2206.39,2147.44,2452.09,599.92,591.64,30.39,0000 0000 0000 0000 000000
2017-03-14 12:48:22,0.20,4.11,0.00,24.04,26.72,30.04,14.45,49.10,1013.15,2029.03,2204.03,2145.79,2450.21,600.10,591.98,30.44,0000 0000 0000 0000 000000
2017-03-14 12:53:24,0.19,4.12,0.00,23.93,26.72,30.04,14.43,49.17,1013.18,2029.08,2201.56,2144.14,2448.33,599.98,592.13,30.49,0000 0000 0000 0000 000000